DW2806 Weather Reports


time (UTC)temp
C
wind
direction
speed
KPH
gust
KPH
rain 1hr
cm
rain 24hr
cm
rain mn
cm
humidity
%
barometer
mb
20260831091547 16 137 0.0 0.0 0.00 0.00 0.00 92 1025.7
20260831090044 16 137 0.0 0.0 0.00 0.00 0.00 92 1025.7
20260831084537 16 137 0.0 0.0 0.00 0.00 0.00 91 1025.7
20260831083036 16 137 0.0 0.0 0.00 0.00 0.00 91 1025.7
20260831081534 16 137 0.0 0.0 0.00 0.00 0.00 91 1025.7
20260831080039 17 137 0.0 0.0 0.00 0.00 0.00 90 1025.7
20260831074529 17 137 0.0 0.0 0.00 0.00 0.00 90 1025.7
20260831073028 17 137 0.0 0.0 0.00 0.00 0.00 90 1025.7
20260831071527 17 137 0.0 0.0 0.00 0.00 0.00 89 1025.7
20260831070026 18 137 0.0 0.0 0.00 0.00 0.00 88 1025.7
20260831064521 18 137 0.0 0.0 0.00 0.00 0.00 88 1025.7
20260831063018 18 137 0.0 0.0 0.00 0.00 0.00 87 1025.7
20260831061516 19 137 0.0 0.0 0.00 0.00 0.00 86 1025.7
20260831060013 20 137 0.0 0.0 0.00 0.00 0.00 86 1025.7
20260831054512 20 137 0.0 0.0 0.00 0.00 0.00 85 1025.7
20260831053023 20 137 0.0 0.0 0.00 0.00 0.00 85 1025.7
20260831051509 20 137 0.0 0.0 0.00 0.00 0.00 85 1025.7
20260831050022 20 137 0.0 0.0 0.00 0.00 0.00 85 1025.7
20260831044505 21 137 0.0 0.0 0.00 0.00 0.00 85 1025.7
20260831043006 21 137 0.0 0.0 0.00 0.00 0.00 84 1025.7
20260831041502 21 137 0.0 0.0 0.00 0.00 0.00 84 1025.7
20260831040002 21 137 0.0 0.0 0.00 0.00 0.00 84 1025.7
20260831034559 21 137 0.0 0.0 0.00 0.00 0.00 85 1025.7
20260831033103 21 137 0.0 0.0 0.00 0.00 0.00 85 1025.7
20260831031559 21 137 0.0 0.0 0.00 0.00 0.00 87 1025.7
20260831030058 21 137 0.0 0.0 0.00 0.00 0.00 86 1025.7
20260831024601 21 137 0.0 0.0 0.00 0.00 0.00 86 1025.7
20260831023057 21 137 0.0 0.0 0.00 0.00 0.00 86 1025.7
20260831021557 21 137 0.0 0.0 0.00 0.00 0.00 85 1025.7
20260831020057 21 137 0.0 0.0 0.00 0.00 0.00 84 1025.7
20260831014555 22 137 0.0 0.0 0.00 0.00 0.00 83 1025.7
20260831013108 22 137 0.0 0.0 0.00 0.00 0.00 80 1025.7
20260831011557 22 137 0.0 0.0 0.00 0.00 0.00 77 1025.7
20260831010056 22 137 0.0 0.0 0.00 0.00 0.00 77 1025.7
20260831004553 22 137 0.0 0.0 0.00 0.00 0.00 76 1025.7
20260831003103 22 137 0.0 0.0 0.00 0.00 0.00 76 1025.7
20260831001552 22 137 0.0 0.0 0.00 0.00 0.00 74 1025.7
20260831000052 22 137 0.0 0.0 0.00 0.00 0.00 74 1025.7
20260830234554 23 137 0.0 0.0 0.00 0.00 0.00 71 1025.7
20260830233053 23 137 0.0 0.0 0.00 0.00 0.00 70 1025.7
20260830231550 23 137 0.0 0.0 0.00 0.00 0.00 70 1025.7
20260830230051 23 137 0.0 0.0 0.00 0.00 0.00 69 1025.7
20260830224549 23 137 0.0 0.0 0.00 0.00 0.00 70 1025.7
20260830223107 24 137 0.0 0.0 0.00 0.00 0.00 70 1025.7
20260830221550 24 137 0.0 0.0 0.00 0.00 0.00 70 1025.7
20260830220047 25 137 0.0 0.0 0.00 0.00 0.00 68 1025.7
20260830214553 25 137 0.0 0.0 0.00 0.00 0.00 67 1025.7
20260830213046 25 137 0.0 0.0 0.00 0.00 0.00 66 1025.7
20260830211546 25 137 0.0 0.0 0.00 0.00 0.00 67 1025.7
20260830210046 25 137 0.0 0.0 0.00 0.00 0.00 64 1025.7
20260830204554 25 137 0.0 0.0 0.00 0.00 0.00 64 1025.7
20260830203047 25 137 0.0 0.0 0.00 0.00 0.00 65 1025.7
20260830201545 25 137 0.0 0.0 0.00 0.00 0.00 63 1025.7
20260830200047 26 137 0.0 0.0 0.00 0.00 0.00 62 1025.7
20260830194543 26 150 0.0 1.6 0.00 0.00 0.00 61 1025.7
20260830193043 26 88 0.0 0.0 0.00 0.00 0.00 60 1025.7
20260830191541 27 88 0.0 1.6 0.00 0.00 0.00 60 1025.7
20260830190052 27 204 0.0 8.0 0.00 0.00 0.00 57 1025.7
20260830184539 27 277 0.0 0.0 0.00 0.00 0.00 61 1025.7
20260830183046 27 277 0.0 3.2 0.00 0.00 0.00 59 1025.7
20260830181537 26 276 0.0 1.6 0.00 0.00 0.00 62 1025.7
20260830180037 26 275 0.0 0.0 0.00 0.00 0.00 61 1025.7
20260830174543 26 275 0.0 0.0 0.00 0.00 0.00 62 1025.7
20260830173036 26 275 0.0 1.6 0.00 0.00 0.00 64 1025.7
20260830171533 26 24 0.0 0.0 0.00 0.00 0.00 61 1025.7
20260830170033 27 24 0.0 0.0 0.00 0.00 0.00 57 1025.7
20260830164530 27 343 0.0 8.0 0.00 0.00 0.00 57 1025.7
20260830163034 27 159 0.0 0.0 0.00 0.00 0.00 62 1025.7
20260830161527 27 59 0.0 0.0 0.00 0.00 0.00 61 1025.7
20260830160035 28 70 0.0 0.0 0.00 0.00 0.00 62 1025.7
20260830154521 27 146 0.0 0.0 0.00 0.00 0.00 63 1025.7
20260830153018 25 142 0.0 0.0 0.00 0.00 0.00 68 1025.7
20260830151516 25 142 0.0 0.0 0.00 0.00 0.00 67 1025.7
20260830150015 26 142 0.0 0.0 0.00 0.00 0.00 65 1025.7
20260830144512 25 142 0.0 0.0 0.00 0.00 0.00 64 1025.7
20260830143009 25 144 0.0 0.0 0.00 0.00 0.00 70 1025.7
20260830141506 24 144 0.0 0.0 0.00 0.00 0.00 71 1025.7
20260830140001 22 144 0.0 0.0 0.00 0.00 0.00 75 1025.7
20260830134559 22 144 0.0 0.0 0.00 0.00 0.00 79 1025.7
20260830133054 20 144 0.0 0.0 0.00 0.00 0.00 82 1025.7
20260830131548 19 144 0.0 0.0 0.00 0.00 0.00 83 1025.7
20260830130046 18 144 0.0 0.0 0.00 0.00 0.00 84 1025.7
20260830124540 18 144 0.0 0.0 0.00 0.00 0.00 85 1025.7
20260830123038 17 144 0.0 0.0 0.00 0.00 0.00 86 1025.7
20260830121539 17 144 0.0 0.0 0.00 0.00 0.00 86 1025.7
20260830120033 16 144 0.0 0.0 0.00 0.00 0.00 87 1025.7
20260830114530 16 144 0.0 0.0 0.00 0.00 0.00 86 1025.7
20260830113029 16 144 0.0 0.0 0.00 0.00 0.00 89 1025.7
20260830111526 15 144 0.0 0.0 0.00 0.00 0.00 88 1025.7
20260830110022 15 144 0.0 0.0 0.00 0.00 0.00 87 1025.7
20260830104547 15 144 0.0 0.0 0.00 0.00 0.00 88 1025.7
20260830103018 15 144 0.0 0.0 0.00 0.00 0.00 88 1025.7
20260830101517 15 144 0.0 0.0 0.00 0.00 0.00 88 1025.7
20260830100016 15 144 0.0 0.0 0.00 0.00 0.00 88 1025.7
20260830094515 15 144 0.0 0.0 0.00 0.00 0.00 88 1025.7
20260830093025 15 144 0.0 0.0 0.00 0.00 0.00 88 1025.7